703  
NZUS99 KSGF 230507  
HRRSGF  
 
HOURLY WEATHER  
NATIONAL WEATHER SERVICE SPRINGFIELD MO  
1200 AM CDT TUE OCT 23 2018  
   
.....SGF CWA...
 
 
 
CITY SKY/WX TMP DP RH WIND PRES REMARKS  
SPRINGFIELD CLOUDY 50 44 80 S3 30.21R  
JOPLIN CLOUDY 48 46 93 CALM 30.23R  
WEST PLAINS CLOUDY 43 40 89 CALM 30.22F  
ROLLA CLOUDY 50 41 71 SW7 30.21R  
OSAGE BEACH CLEAR 47 46 97 CALM 30.21S  
BRANSON CLOUDY 48 41 76 CALM 30.23S  
   
.....SURROUNDING SGF CWA...
 
 
 
CITY SKY/WX TMP DP RH WIND PRES REMARKS  
CHANUTE CLOUDY 50 47 89 S6 30.22R  
PARSONS CLOUDY 48 47 96 CALM 30.23R  
COFFEYVILLE CLOUDY 52 46 80 S3 30.21R  
EMPORIA CLOUDY 50 47 89 S6 30.20R  
GROVE OK PTCLDY 50 46 87 CALM 30.23R  
ROGERS AR CLOUDY 48 45 89 CALM 30.23S  
SILOAM SPRINGS CLOUDY 48 45 89 E3 30.23R  
HARRISON AR CLOUDY 48 45 89 NW5 30.22S  
NEAR YELLVILLE PTCLDY 45 44 97 CALM 30.23R  
   
.....KANSAS AND MISSOURI...
 
 
 
CITY SKY/WX TMP DP RH WIND PRES REMARKS  
KANSAS CTY INT PTCLDY 54 47 77 NE6 30.21R  
DOWNTOWN KC PTCLDY 52 49 89 CALM 30.21R  
COLUMBIA PTCLDY 52 45 77 CALM 30.20R  
SEDALIA PTCLDY 51 47 86 CALM 30.22R  
ST JOSEPH CLEAR 46 45 96 N3 30.22R  
ST LOUIS PTCLDY 53 45 74 CALM 30.19R  
SPIRIT OF STL CLEAR 48 45 89 CALM 30.18R  
KIRKSVILLE CLEAR 41 39 93 NW5 30.21R  
WICHITA MOCLDY 55 49 80 SE6 30.19R  
TOPEKA MOCLDY 48 46 93 N5 30.21R  
OLATHE PTCLDY 50 48 93 CALM 30.21R  
   
.....TENNESSEE...
 
 
 
CITY SKY/WX TMP DP RH WIND PRES REMARKS  
MEMPHIS MOCLDY 55 48 77 VRB3 30.22F  
NASHVILLE MOCLDY 46 42 86 S5 30.23F  
   
.....ARKANSAS....
 
 
 
CITY SKY/WX TMP DP RH WIND PRES REMARKS  
FAYETTEVILLE CLOUDY 45 43 93 CALM 30.22S  
FT SMITH CLOUDY 52 48 86 CALM 30.22S  
LITTLE ROCK CLOUDY 49 48 97 CALM 30.23S  
   
.....OKLAHOMA....
 
 
 
CITY SKY/WX TMP DP RH WIND PRES REMARKS  
TULSA CLOUDY 54 46 74 S3 30.20R  
PONCA CITY CLOUDY 58 48 69 S5 30.20R  
MCALESTER CLOUDY 48 45 89 CALM 30.23R  
OKLAHOMA CITY CLOUDY 51 48 89 SE7 30.19S  
   
.....IOWA.........
 
 
 
CITY SKY/WX TMP DP RH WIND PRES REMARKS  
DES MOINES CLEAR 49 33 54 N8 30.24R  
QUAD CITIES FAIR 51 34 52 NW8 30.17R  
   
.....ILLINOIS.....
 
 
 
CITY SKY/WX TMP DP RH WIND PRES REMARKS  
QUINCY CLEAR 49 40 71 NW7 30.18R  
CHICAGO FAIR 51 33 50 W7 30.07R  
 
 
 
CLICK HERE TO GO TO PREVIOUS BULLETINS.

The Nexlab MO Page
The Nexlab KS Page Main Text Page